{"data":{"norad_id":62046,"intl_designator":"2024-216Q","name":"STARLINK-32598","alt_names":[],"object_type":"PAYLOAD","status":"ACTIVE","operator":null,"country":"US","launch_date":"2024-11-21","launch_site_code":"AFETR","launch_vehicle":null,"mission":null,"orbit_class":"UNKNOWN","rcs_meters":null,"size_class":null,"mass_kg":null,"dimensions":null,"purposes":["comms"],"wikipedia_slug":null,"has_3d_model":false,"image_url":null,"decayed_at":null,"tle_current":{"epoch":"2026-05-25T03:25:16.800384Z","epoch_age_seconds":62067,"freshness":"FRESH","line1":"1 62046U 24216Q   26145.14255556  .00010504  00000+0  39068-3 0  9992","line2":"2 62046  42.9989 184.0800 0000821 269.2544  90.8213 15.27578820 85578","mean_motion":15.2757882,"eccentricity":8.21e-5,"inclination_deg":42.9989,"raan_deg":184.08,"arg_perigee_deg":269.2544,"mean_anomaly_deg":90.8213,"bstar":0.00039068,"rev_number":8557,"period_min":94.266821531343,"perigee_km":482.48932571786,"apogee_km":483.615933055,"semimajor_km":6861.1896293864,"source":"CELESTRAK","updated_at":"2026-05-25T13:38:19.526765Z"}}}